This is the latest recevied weather packets stored in our database for station/object K5NWZ. If no packets are shown the sender has not sent any weather packets the latest 10 day(s).
| Time | Temp. | Humidity | Pressure | Rain* | Wind** | Luminosity | Snow |
|---|---|---|---|---|---|---|---|
| 1777308076 | 5.56° C | 62% | 1021.9 hPa | 0 mm | - | 280 W/m² | - |
| 1777307775 | 5.56° C | 63% | 1022 hPa | 0 mm | - | 282 W/m² | - |
| 1777307472 | 5.56° C | 62% | 1022.4 hPa | 0 mm | - | 233 W/m² | - |
| 1777307169 | 5.56° C | 62% | 1022 hPa | 0 mm | - | 255 W/m² | - |
| 1777306866 | 5.56° C | 63% | 1022 hPa | 0 mm | - | 247 W/m² | - |
| 1777306563 | 5.56° C | 63% | 1022 hPa | 0 mm | - | 235 W/m² | - |
| 1777306258 | 5° C | 64% | 1022.1 hPa | 0 mm | - | 188 W/m² | - |
| 1777305954 | 5° C | 63% | 1021.8 hPa | 0 mm | - | 160 W/m² | - |
| 1777305650 | 5.56° C | 63% | 1021.8 hPa | 0 mm | - | 147 W/m² | - |
| 1777305346 | 5.56° C | 62% | 1021.7 hPa | 0 mm | - | 167 W/m² | - |
| 1777305046 | 5° C | 62% | 1021.7 hPa | 0 mm | - | 184 W/m² | - |
| 1777304741 | 5° C | 63% | 1021.8 hPa | 0 mm | - | 175 W/m² | - |
| 1777304439 | 5.56° C | 63% | 1021.8 hPa | 0 mm | - | 136 W/m² | - |
| 1777304137 | 5° C | 63% | 1021.4 hPa | 0 mm | - | 144 W/m² | - |
| 1777303833 | 5° C | 63% | 1021.6 hPa | 0 mm | - | 138 W/m² | - |
| 1777303529 | 5° C | 64% | 1021.3 hPa | 0 mm | - | 157 W/m² | - |
| 1777303227 | 4.44° C | 65% | 1021.2 hPa | 0 mm | - | 131 W/m² | - |
| 1777302926 | 4.44° C | 65% | 1021.3 hPa | 0 mm | - | 114 W/m² | - |
| 1777302621 | 4.44° C | 66% | 1021.3 hPa | 0 mm | - | 111 W/m² | - |
| 1777302321 | 4.44° C | 65% | 1021.3 hPa | 0 mm | - | 110 W/m² | - |
| 1777302018 | 4.44° C | 67% | 1021.2 hPa | 0 mm | - | 110 W/m² | - |
| 1777301715 | 3.89° C | 68% | 1021 hPa | 0 mm | - | 95 W/m² | - |
| 1777301412 | 4.44° C | 67% | 1020.9 hPa | 0 mm | - | 89 W/m² | - |
| 1777301109 | 4.44° C | 67% | 1020.7 hPa | 0 mm | - | 79 W/m² | - |
| 1777300806 | 4.44° C | 67% | 1020.9 hPa | 0 mm | - | 88 W/m² | - |
* Rain latest hour (hover to see other rain measurements)
** Current wind speed in m/s (hover to see current wind gust speed)